Regional Weather Roundup
Issued by NWS Northern Indiana

Home | Current Version | Previous Version | Graphics & Text | Print | Product List | Glossary On
Versions: 1 2 3 4 5 6 7 8 9 10 11 12 13 14 15 16 17 18 19 20 21 22 23 24 25 26 27 28 29 30 31 32 33 34 35 36 37 38 39 40 41 42 43 44 45 46 47 48 49 50
000
ASUS43 KIWX 272000
RWRIWX

KIWX WEATHER ROUNDUP
NATIONAL WEATHER SERVICE NORTHERN INDIANA
400 PM EDT THU JUL 27 2017

NOTE: "FAIR" INDICATES FEW OR NO CLOUDS BELOW 12,000 FEET WITH NO
SIGNIFICANT WEATHER AND/OR OBSTRUCTIONS TO VISIBILITY.

* THESE STATIONS ARE NOT UNDER NWS QUALITY CONTROL. THEY ALSO MAY NOT
  REPORT WEATHER SUCH AS PRECIPITATION OR FOG.

INZ001>027-272100-
NORTHERN INDIANA

CITY           SKY/WX    TMP DP  RH WIND       PRES   REMARKS
GARY*          CLOUDY    75  70  83 N14       29.94S
MICHIGAN CITY* CLOUDY    77  72  83 N12       29.93S
SOUTH BEND     CLOUDY    83  72  69 NW8       29.90S
ELKHART*       MOSUNNY   84  66  54 CALM      29.89F
GOSHEN         MOSUNNY   84  69  60 VRB5      29.89F
MONTICELLO*    CLOUDY    81  74  81 N8        29.89F
FORT WAYNE     LGT RAIN  76  72  87 NW7       29.90S

$$
INZ028>050-272100-
CENTRAL INDIANA

CITY           SKY/WX    TMP DP  RH WIND       PRES   REMARKS
LAFAYETTE      CLOUDY    82  74  76 NW6       29.88F
KOKOMO*        MOSUNNY   81  73  76 N10       29.90F
MUNCIE*        CLOUDY    82  72  71 N6        29.90F
INDIANAPOLIS   PTSUNNY   78  71  79 W13       29.91F

$$
MIZ043>046-050>051-056>058-064>065-071>073-077>080-272100-
SOUTHWEST LOWER MICHIGAN

CITY           SKY/WX    TMP DP  RH WIND       PRES   REMARKS
BATTLE CREEK   CLOUDY    82  69  64 NE9       29.91F
BENTON HARBOR  SUNNY     80  69  69 VRB7      29.91S
COLDWATER*     SUNNY     85  63  47 NE6       29.89F
HILLSDALE*     PTSUNNY   84  59  42 NE5       29.90F
HOLLAND        PTSUNNY   82  66  58 VRB3      29.93S
GRAND RAPIDS   PTSUNNY   82  69  64 NE9       29.93F
KALAMAZOO      PTSUNNY   86  68  54 NE7       29.90F
STURGIS*       MOSUNNY   83  69  62 E8        29.89S
THREE RIVERS*  PTSUNNY   83  66  56 CALM      29.90S

$$
OHZ001>008-015>018-024>025-272100-
NORTHWEST OHIO

CITY           SKY/WX    TMP DP  RH WIND       PRES   REMARKS
DEFIANCE       PTSUNNY   81  71  71 E5        29.88F
FINDLAY        PTSUNNY   84  70  62 N7        29.87F
TOLEDO EXPRESS MOSUNNY   83  69  62 E12       29.88F
TOLEDO METCALF PTSUNNY   82  68  62 E7        29.89F
LIMA           CLOUDY    80  71  74 CALM      29.89F

$$
AND FOR LAKE MICHIGAN COASTAL AND OPEN LAKE BUOY OBSERVATIONS

STATION/POSITION TEMP    WIND        PRES    VSBY  WAVE
                 AIR SEA DIR/SP/G                  HT/PER
                 (F)     (DEG/KT/KT) (MB)    (MI)  (FT/S)
CALUMET HARBOR    73     340/ 12/ 19 1013.4F
MICHIGAN CITY     73     360/ 14/ 16   N/A
BURNS HARBOR      73      10/ 12/ 15 1013.9S
SAINT JOSEPH      76      10/  9/ 12 1014.2
SOUTH LAKE BUOY   70 71   10/ 14/ 17 1014.0          1/ 3
4 MI NW BRIDGMAN  74 74   30/ 14/ 17 1012.8F         3/ 3
MICHIGAN CITY     73 75   10/ 14/ 17   N/A           3/ 3

$$
&&




USA.gov is the U.S. government's official web portal to all federal, state and local government web resources and services.